QPF
0.01 0.01 0.00 0.00 0.00 0.00 0.00 0.00 0.00 0.00 0.00 0.00 0.00 0.00 0.00 0.00 0.00 0.00 0.00 0.00 0.00 0.00 0.00 0.00 0.01 0.01 0.01 0.01 0.01 0.01 0.00 0.00 0.00 0.00 0.00 0.01 0.01 0.02
0.01 0.01 0.01 0.01 0.01 0.01 0.01 0.01 0.00 0.00 0.00 0.00 0.00 0.00 0.00 0.00 0.00 0.00 0.00 0.00 0.00 0.00 0.00 0.00 0.00 0.00 0.00 0.00 0.00 0.00 0.00 0.00 0.00 0.00 0.00 0.00 0.00 0.01
0.02 0.01 0.01 0.01 0.01 0.01 0.01 0.00 0.00 0.00 0.00 0.00 0.00 0.00 0.00 0.00 0.00 0.00 0.00 0.00 0.00 0.00 0.00 0.00 0.00 0.00 0.00 0.00 0.01 0.01 0.01 0.01 0.00 0.00 0.00 0.00 0.00 0.00
0.01 0.01 0.01 0.01 0.01 0.01 0.01 0.00 0.00 0.00 0.00 0.00 0.00 0.00 0.00 0.00 0.00 0.00 0.00 0.00 0.00 0.00 0.00 0.00 0.00 0.00 0.00 0.00 0.01 0.01 0.01 0.01 0.01 0.01 0.01 0.01 0.01 0.00
0.01 0.01 0.01 0.00 0.01 0.00 0.00 0.00 0.00 0.01 0.00 0.00 0.00 0.00 0.00 0.00 0.00 0.00 0.00 0.00 0.00 0.00 0.00 0.00 0.00 0.00 0.01 0.01 0.01 0.01 0.01 0.02 0.02 0.02 0.02 0.01 0.01 0.01
0.02 0.01 0.01 0.01 0.01 0.01 0.01 0.01 0.01 0.01 0.01 0.00 0.00 0.00 0.00 0.00 0.00 0.00 0.00 0.00 0.00 0.00 0.00 0.00 0.01 0.01 0.01 0.01 0.01 0.01 0.01 0.01 0.01 0.02 0.02 0.02 0.02 0.01
0.02 0.02 0.02 0.02 0.01 0.01 0.01 0.01 0.01 0.01 0.01 0.01 0.01 0.00 0.00 0.00 0.00 0.00 0.00 0.00 0.00 0.00 0.00 0.00 0.01 0.01 0.01 0.01 0.01 0.01 0.01 0.01 0.01 0.01 0.01 0.01 0.01 0.02
0.03 0.03 0.03 0.02 0.02 0.02 0.02 0.01 0.01 0.01 0.00 0.00 0.00 0.00 0.00 0.00 0.00 0.00 0.00 0.00 0.00 0.00 0.00 0.01 0.01 0.00 0.01 0.00 0.00 0.01 0.01 0.01 0.01 0.01 0.01 0.01 0.01 0.01
0.05 0.05 0.04 0.03 0.02 0.01 0.01 0.01 0.01 0.01 0.00 0.00 0.00 0.00 0.00 0.00 0.00 0.00 0.00 0.00 0.00 0.00 0.00 0.00 0.00 0.00 0.00 0.00 0.00 0.00 0.00 0.01 0.01 0.01 0.01 0.02 0.02 0.02
0.07 0.06 0.05 0.04 0.03 0.02 0.01 0.01 0.00 0.00 0.00 0.00 0.00 0.00 0.00 0.00 0.00 0.00 0.00 0.00 0.00 0.00 0.00 0.00 0.00 0.00 0.00 0.00 0.00 0.00 0.01 0.01 0.01 0.01 0.01 0.01 0.01 0.01
0.05 0.04 0.03 0.02 0.02 0.01 0.01 0.01 0.01 0.01 0.00 0.00 0.00 0.00 0.00 0.00 0.00 0.00 0.00 0.00 0.00 0.00 0.00 0.00 0.00 0.00 0.00 0.00 0.00 0.00 0.00 0.00 0.00 0.00 0.00 0.00 0.01 0.01
0.03 0.03 0.03 0.03 0.03 0.03 0.03 0.03 0.02 0.02 0.01 0.01 0.01 0.01 0.01 0.00 0.00 0.00 0.00 0.00 0.00 0.00 0.00 0.00 0.00 0.00 0.00 0.00 0.00 0.00 0.00 0.00 0.00 0.00 0.00 0.00 0.00 0.00
0.05 0.05 0.04 0.04 0.03 0.02 0.02 0.01 0.01 0.01 0.01 0.01 0.00 0.00 0.00 0.00 0.00 0.00 0.00 0.00 0.00 0.00 0.00 0.00 0.00 0.00 0.01 0.00 0.00 0.00 0.00 0.00 0.00 0.00 0.00 0.00 0.00 0.00
0.04 0.03 0.02 0.02 0.02 0.02 0.01 0.01 0.01 0.01 0.00 0.00 0.00 0.00 0.00 0.00 0.00 0.00 0.00 0.00 0.00 0.00 0.00 0.00 0.00 0.00 0.00 0.00 0.00 0.00 0.00 0.00 0.00 0.00 0.00 0.01 0.01 0.01
0.05 0.05 0.04 0.04 0.04 0.04 0.03 0.02 0.01 0.00 0.00 0.00 0.00 0.00 0.00 0.00 0.00 0.00 0.00 0.00 0.00 0.00 0.00 0.00 0.00 0.00 0.00 0.00 0.00 0.00 0.00 0.00 0.00 0.00 0.00 0.01 0.01 0.01
0.04 0.04 0.03 0.03 0.02 0.01 0.01 0.01 0.00 0.00 0.00 0.00 0.00 0.00 0.00 0.00 0.00 0.00 0.00 0.00 0.00 0.00 0.00 0.00 0.00 0.00 0.00 0.00 0.00 0.00 0.00 0.01 0.00 0.00 0.00 0.00 0.00 0.00
0.02 0.01 0.01 0.01 0.01 0.00 0.00 0.00 0.00 0.00 0.00 0.00 0.00 0.00 0.00 0.00 0.00 0.00 0.00 0.00 0.00 0.00 0.00 0.00 0.00 0.00 0.00 0.00 0.00 0.00 0.01 0.01 0.01 0.01 0.01 0.01 0.00 0.00
0.01 0.01 0.00 0.00 0.00 0.00 0.00 0.00 0.00 0.00 0.00 0.00 0.00 0.00 0.00 0.00 0.00 0.00 0.00 0.00 0.00 0.00 0.00 0.00 0.01 0.01 0.01 0.01 0.01 0.01 0.01 0.01 0.01 0.01 0.01 0.01 0.01 0.01
0.00 0.00 0.00 0.00 0.00 0.00 0.00 0.00 0.00 0.00 0.00 0.00 0.00 0.00 0.00 0.00 0.00 0.00 0.00 0.00 0.00 0.00 0.00 0.00 0.01 0.01 0.01 0.02 0.02 0.02 0.02 0.02 0.02 0.01 0.01 0.01 0.02 0.02
0.00 0.00 0.00 0.00 0.00 0.00 0.00 0.00 0.00 0.00 0.00 0.00 0.00 0.00 0.00 0.00 0.00 0.00 0.00 0.00 0.00 0.00 0.00 0.00 0.00 0.01 0.01 0.01 0.01 0.01 0.01 0.01 0.02 0.02 0.01 0.02 0.04 0.04
0.00 0.00 0.00 0.00 0.00 0.00 0.00 0.00 0.00 0.00 0.00 0.00 0.00 0.00 0.00 0.00 0.00 0.00 0.00 0.00 0.00 0.00 0.00 0.00 0.01 0.01 0.01 0.01 0.01 0.01 0.01 0.01 0.02 0.02 0.02 0.02 0.04 0.04
0.00 0.00 0.00 0.00 0.00 0.00 0.00 0.00 0.00 0.00 0.00 0.00 0.00 0.00 0.00 0.00 0.00 0.00 0.00 0.00 0.00 0.00 0.00 0.00 0.00 0.01 0.00 0.00 0.01 0.00 0.00 0.00 0.01 0.01 0.01 0.02 0.02 0.02
0.00 0.00 0.00 0.00 0.00 0.00 0.00 0.00 0.00 0.00 0.00 0.00 0.00 0.00 0.00 0.00 0.00 0.00 0.00 0.00 0.00 0.00 0.00 0.00 0.00 0.00 0.00 0.00 0.00 0.01 0.01 0.00 0.00 0.00 0.01 0.01 0.01 0.01
MSLP
1019.22 1019.58 1019.92 1020.22 1020.47 1020.64 1020.74 1020.77 1020.74 1020.65 1020.52 1020.37 1020.18 1019.97 1019.73 1019.49 1019.25 1019.03 1018.86 1018.75 1018.71 1018.76 1018.87 1019.02 1019.20 1019.37 1019.50 1019.60 1019.64 1019.64 1019.63 1019.60 1019.58 1019.58 1019.60 1019.63 1019.67 1019.69
1019.21 1019.53 1019.83 1020.08 1020.29 1020.44 1020.53 1020.57 1020.58 1020.55 1020.48 1020.39 1020.26 1020.08 1019.87 1019.61 1019.33 1019.05 1018.80 1018.60 1018.47 1018.43 1018.47 1018.56 1018.70 1018.85 1018.98 1019.08 1019.14 1019.16 1019.16 1019.15 1019.14 1019.15 1019.17 1019.21 1019.24 1019.26
1019.25 1019.55 1019.81 1020.03 1020.20 1020.32 1020.41 1020.46 1020.50 1020.52 1020.53 1020.50 1020.43 1020.31 1020.11 1019.85 1019.55 1019.21 1018.88 1018.59 1018.36 1018.22 1018.17 1018.19 1018.26 1018.37 1018.48 1018.57 1018.63 1018.67 1018.68 1018.68 1018.68 1018.70 1018.72 1018.75 1018.78 1018.79
1019.37 1019.66 1019.91 1020.11 1020.26 1020.36 1020.43 1020.50 1020.56 1020.62 1020.68 1020.71 1020.70 1020.62 1020.45 1020.20 1019.88 1019.50 1019.11 1018.73 1018.41 1018.17 1018.02 1017.95 1017.96 1018.01 1018.08 1018.15 1018.20 1018.23 1018.25 1018.25 1018.25 1018.26 1018.27 1018.28 1018.28 1018.27
1019.60 1019.91 1020.16 1020.35 1020.48 1020.57 1020.63 1020.69 1020.76 1020.84 1020.93 1021.00 1021.03 1020.99 1020.85 1020.62 1020.29 1019.89 1019.45 1019.01 1018.61 1018.29 1018.05 1017.90 1017.82 1017.81 1017.83 1017.86 1017.89 1017.90 1017.90 1017.89 1017.87 1017.85 1017.84 1017.82 1017.79 1017.74
1019.96 1020.29 1020.56 1020.76 1020.88 1020.95 1021.00 1021.04 1021.10 1021.18 1021.27 1021.36 1021.41 1021.39 1021.28 1021.06 1020.74 1020.33 1019.88 1019.40 1018.95 1018.56 1018.25 1018.02 1017.87 1017.79 1017.75 1017.73 1017.72 1017.69 1017.66 1017.62 1017.57 1017.52 1017.46 1017.39 1017.32 1017.22
1020.41 1020.79 1021.09 1021.30 1021.42 1021.48 1021.50 1021.51 1021.54 1021.59 1021.66 1021.74 1021.79 1021.78 1021.69 1021.49 1021.19 1020.80 1020.34 1019.86 1019.38 1018.95 1018.58 1018.29 1018.08 1017.92 1017.82 1017.74 1017.67 1017.60 1017.53 1017.45 1017.35 1017.25 1017.14 1017.02 1016.89 1016.74
1020.95 1021.37 1021.69 1021.92 1022.04 1022.08 1022.07 1022.05 1022.03 1022.04 1022.08 1022.13 1022.17 1022.16 1022.08 1021.90 1021.62 1021.26 1020.82 1020.35 1019.87 1019.41 1019.01 1018.67 1018.40 1018.18 1018.00 1017.86 1017.73 1017.60 1017.48 1017.34 1017.20 1017.05 1016.88 1016.71 1016.52 1016.32
1021.53 1021.98 1022.33 1022.56 1022.68 1022.71 1022.67 1022.61 1022.56 1022.52 1022.52 1022.53 1022.54 1022.52 1022.44 1022.28 1022.04 1021.70 1021.29 1020.84 1020.37 1019.91 1019.48 1019.10 1018.77 1018.48 1018.24 1018.03 1017.84 1017.65 1017.47 1017.28 1017.09 1016.89 1016.68 1016.46 1016.22 1015.97
1022.14 1022.60 1022.95 1023.19 1023.30 1023.32 1023.27 1023.18 1023.09 1023.02 1022.97 1022.95 1022.93 1022.90 1022.82 1022.67 1022.44 1022.13 1021.75 1021.32 1020.85 1020.39 1019.94 1019.52 1019.14 1018.80 1018.50 1018.22 1017.96 1017.72 1017.48 1017.25 1017.02 1016.78 1016.53 1016.27 1015.99 1015.69
1022.76 1023.20 1023.55 1023.78 1023.89 1023.90 1023.84 1023.74 1023.64 1023.54 1023.47 1023.42 1023.38 1023.32 1023.23 1023.08 1022.86 1022.56 1022.20 1021.77 1021.31 1020.84 1020.37 1019.92 1019.49 1019.10 1018.74 1018.40 1018.08 1017.79 1017.50 1017.23 1016.96 1016.69 1016.42 1016.13 1015.82 1015.49
1023.37 1023.79 1024.12 1024.33 1024.44 1024.46 1024.41 1024.32 1024.21 1024.11 1024.03 1023.96 1023.90 1023.82 1023.71 1023.55 1023.31 1023.01 1022.64 1022.21 1021.74 1021.25 1020.76 1020.27 1019.81 1019.37 1018.95 1018.56 1018.20 1017.86 1017.53 1017.22 1016.92 1016.63 1016.33 1016.01 1015.68 1015.33
1023.99 1024.36 1024.66 1024.86 1024.98 1025.01 1024.97 1024.90 1024.82 1024.73 1024.65 1024.57 1024.49 1024.39 1024.25 1024.05 1023.79 1023.46 1023.07 1022.62 1022.13 1021.62 1021.10 1020.59 1020.09 1019.61 1019.16 1018.73 1018.32 1017.94 1017.58 1017.23 1016.90 1016.58 1016.25 1015.91 1015.56 1015.18
1024.60 1024.92 1025.19 1025.38 1025.50 1025.55 1025.54 1025.50 1025.44 1025.38 1025.30 1025.22 1025.12 1025.00 1024.82 1024.58 1024.28 1023.91 1023.48 1023.00 1022.48 1021.95 1021.41 1020.87 1020.35 1019.85 1019.36 1018.90 1018.47 1018.05 1017.65 1017.26 1016.89 1016.53 1016.16 1015.79 1015.40 1014.99
1025.20 1025.48 1025.71 1025.89 1026.01 1026.08 1026.10 1026.10 1026.07 1026.02 1025.96 1025.87 1025.75 1025.59 1025.36 1025.08 1024.73 1024.31 1023.84 1023.33 1022.79 1022.23 1021.68 1021.13 1020.60 1020.08 1019.58 1019.09 1018.63 1018.17 1017.73 1017.30 1016.88 1016.46 1016.05 1015.63 1015.20 1014.75
1025.79 1026.02 1026.22 1026.38 1026.51 1026.59 1026.64 1026.66 1026.65 1026.62 1026.56 1026.46 1026.32 1026.11 1025.84 1025.51 1025.11 1024.65 1024.14 1023.60 1023.04 1022.47 1021.91 1021.36 1020.83 1020.30 1019.79 1019.28 1018.78 1018.29 1017.80 1017.31 1016.83 1016.35 1015.87 1015.39 1014.91 1014.41
1026.34 1026.54 1026.71 1026.86 1026.98 1027.06 1027.12 1027.16 1027.16 1027.13 1027.07 1026.95 1026.77 1026.53 1026.22 1025.84 1025.39 1024.89 1024.36 1023.80 1023.23 1022.66 1022.10 1021.56 1021.02 1020.49 1019.97 1019.44 1018.90 1018.36 1017.81 1017.26 1016.71 1016.16 1015.61 1015.06 1014.52 1013.98
1026.85 1027.02 1027.17 1027.30 1027.40 1027.48 1027.54 1027.57 1027.57 1027.53 1027.45 1027.31 1027.10 1026.82 1026.48 1026.06 1025.58 1025.06 1024.51 1023.94 1023.37 1022.80 1022.25 1021.71 1021.17 1020.63 1020.08 1019.52 1018.94 1018.34 1017.73 1017.11 1016.48 1015.86 1015.25 1014.65 1014.06 1013.48
1027.32 1027.46 1027.59 1027.69 1027.78 1027.84 1027.88 1027.90 1027.88 1027.83 1027.72 1027.56 1027.33 1027.02 1026.65 1026.21 1025.72 1025.18 1024.62 1024.05 1023.48 1022.91 1022.35 1021.80 1021.25 1020.69 1020.10 1019.50 1018.87 1018.21 1017.53 1016.84 1016.16 1015.48 1014.81 1014.17 1013.55 1012.95
1027.74 1027.86 1027.96 1028.04 1028.10 1028.15 1028.16 1028.16 1028.12 1028.05 1027.92 1027.74 1027.49 1027.17 1026.78 1026.33 1025.82 1025.28 1024.72 1024.15 1023.57 1022.99 1022.42 1021.84 1021.26 1020.65 1020.03 1019.36 1018.67 1017.95 1017.22 1016.48 1015.74 1015.02 1014.33 1013.68 1013.05 1012.46
1028.13 1028.23 1028.31 1028.36 1028.40 1028.41 1028.41 1028.38 1028.33 1028.24 1028.09 1027.90 1027.63 1027.30 1026.91 1026.45 1025.95 1025.41 1024.84 1024.25 1023.66 1023.06 1022.45 1021.83 1021.20 1020.54 1019.85 1019.13 1018.38 1017.61 1016.83 1016.05 1015.29 1014.57 1013.88 1013.23 1012.63 1012.06
1028.48 1028.56 1028.62 1028.65 1028.66 1028.66 1028.63 1028.59 1028.52 1028.42 1028.27 1028.06 1027.80 1027.46 1027.07 1026.61 1026.10 1025.55 1024.97 1024.36 1023.74 1023.11 1022.45 1021.78 1021.08 1020.36 1019.61 1018.83 1018.03 1017.22 1016.41 1015.63 1014.88 1014.17 1013.51 1012.90 1012.33 1011.80
1028.80 1028.86 1028.89 1028.90 1028.90 1028.88 1028.84 1028.79 1028.71 1028.60 1028.45 1028.24 1027.97 1027.64 1027.24 1026.78 1026.27 1025.71 1025.10 1024.47 1023.81 1023.12 1022.42 1021.68 1020.92 1020.14 1019.33 1018.51 1017.68 1016.85 1016.05 1015.28 1014.56 1013.90 1013.29 1012.74 1012.22 1011.74
Thickness
5708 5707 5706 5706 5705 5704 5703 5701 5697 5692 5693 5697 5700 5703 5703 5703 5703 5702 5701 5701 5699 5698 5696 5695 5693 5692 5690 5689 5688 5687 5686 5685 5684 5682 5681 5681 5680 5679
5704 5703 5702 5702 5701 5700 5699 5698 5696 5693 5689 5692 5694 5695 5696 5697 5697 5697 5696 5695 5694 5692 5691 5689 5688 5687 5685 5684 5682 5682 5681 5680 5679 5678 5677 5676 5676 5675
5700 5699 5698 5697 5696 5695 5695 5693 5691 5690 5687 5688 5688 5689 5689 5690 5689 5689 5688 5687 5686 5685 5684 5683 5681 5680 5679 5678 5677 5675 5674 5673 5673 5672 5671 5671 5670 5670
5696 5695 5693 5692 5691 5690 5689 5687 5686 5685 5683 5681 5681 5681 5681 5681 5680 5680 5679 5678 5677 5676 5675 5674 5673 5672 5671 5670 5669 5668 5667 5666 5665 5664 5664 5663 5663 5663
5691 5690 5688 5687 5685 5683 5682 5681 5680 5679 5676 5674 5672 5671 5671 5670 5670 5669 5668 5667 5667 5666 5665 5663 5662 5661 5660 5659 5658 5658 5657 5656 5656 5655 5654 5654 5654 5654
5685 5684 5682 5681 5679 5677 5675 5673 5672 5670 5667 5665 5662 5661 5660 5659 5658 5657 5657 5655 5654 5654 5652 5651 5650 5649 5648 5647 5646 5646 5645 5644 5644 5644 5643 5643 5643 5644
5677 5676 5674 5673 5671 5670 5667 5664 5662 5660 5657 5655 5652 5649 5647 5646 5644 5643 5642 5642 5641 5639 5638 5638 5636 5635 5634 5633 5632 5631 5630 5630 5630 5630 5630 5630 5630 5631
5668 5666 5664 5662 5661 5659 5657 5655 5652 5649 5646 5643 5639 5636 5633 5631 5629 5629 5627 5627 5627 5625 5623 5623 5621 5620 5618 5617 5616 5615 5614 5614 5614 5614 5614 5615 5615 5616
5659 5657 5654 5651 5649 5647 5644 5642 5639 5636 5634 5630 5626 5622 5619 5617 5615 5614 5612 5610 5609 5608 5607 5609 5606 5604 5602 5601 5599 5598 5597 5596 5596 5596 5596 5597 5598 5599
5648 5646 5643 5639 5637 5635 5632 5628 5623 5620 5618 5615 5611 5607 5605 5602 5600 5598 5596 5594 5593 5591 5589 5590 5590 5587 5585 5583 5581 5580 5579 5578 5578 5578 5578 5579 5580 5581
5636 5633 5630 5627 5624 5622 5618 5614 5609 5604 5601 5598 5595 5591 5589 5587 5584 5583 5580 5579 5578 5575 5570 5569 5570 5569 5569 5566 5563 5561 5560 5559 5558 5558 5559 5559 5560 5562
5623 5619 5617 5614 5610 5607 5603 5599 5593 5588 5585 5582 5578 5575 5572 5569 5566 5563 5560 5558 5556 5555 5552 5548 5548 5547 5550 5549 5544 5541 5540 5540 5540 5540 5540 5541 5541 5542
5611 5606 5602 5599 5596 5592 5588 5583 5578 5573 5569 5565 5561 5558 5555 5551 5547 5544 5540 5537 5535 5533 5531 5527 5526 5525 5523 5527 5526 5523 5521 5522 5522 5523 5523 5523 5522 5522
5597 5591 5587 5584 5580 5576 5572 5567 5562 5558 5554 5550 5546 5541 5537 5533 5529 5525 5522 5518 5515 5512 5510 5507 5505 5503 5502 5504 5507 5507 5504 5503 5504 5505 5506 5506 5507 5507
5582 5577 5572 5568 5564 5559 5555 5551 5547 5543 5538 5533 5528 5523 5518 5514 5511 5508 5505 5501 5498 5495 5492 5488 5486 5484 5482 5483 5486 5487 5488 5489 5487 5488 5489 5490 5491 5493
5567 5561 5557 5552 5548 5542 5537 5533 5529 5524 5520 5514 5509 5505 5501 5497 5494 5490 5487 5484 5482 5479 5474 5472 5469 5468 5468 5468 5468 5470 5470 5471 5472 5472 5474 5475 5477 5479
5553 5547 5543 5538 5532 5526 5521 5516 5511 5507 5502 5496 5491 5487 5483 5480 5476 5472 5469 5467 5464 5463 5461 5458 5456 5454 5453 5453 5455 5457 5456 5456 5457 5458 5460 5464 5466 5468
5540 5533 5526 5521 5516 5510 5505 5499 5494 5488 5483 5478 5474 5469 5465 5462 5459 5456 5453 5450 5448 5446 5445 5445 5444 5445 5445 5445 5441 5442 5442 5443 5445 5446 5449 5453 5458 5460
5525 5517 5511 5505 5499 5493 5488 5482 5477 5471 5465 5461 5457 5452 5449 5446 5443 5440 5438 5435 5433 5431 5430 5429 5429 5429 5431 5434 5433 5428 5429 5432 5434 5437 5440 5443 5447 5452
5508 5502 5495 5489 5483 5477 5472 5466 5460 5455 5450 5445 5441 5437 5433 5430 5427 5425 5423 5420 5418 5418 5418 5418 5417 5416 5415 5417 5420 5421 5420 5421 5425 5429 5433 5437 5441 5445
5493 5487 5480 5474 5468 5462 5456 5451 5445 5440 5435 5430 5426 5422 5418 5415 5413 5411 5409 5406 5405 5406 5406 5407 5406 5405 5405 5408 5411 5415 5416 5414 5415 5419 5425 5430 5435 5440
5478 5472 5466 5459 5454 5448 5442 5437 5432 5427 5422 5418 5413 5409 5406 5402 5400 5399 5397 5396 5395 5395 5395 5397 5398 5398 5399 5401 5403 5407 5410 5411 5412 5414 5417 5420 5423 5429
5465 5458 5452 5446 5440 5435 5430 5425 5420 5415 5410 5406 5402 5398 5395 5392 5390 5388 5387 5386 5385 5386 5387 5388 5390 5391 5392 5394 5396 5400 5403 5406 5409 5413 5415 5416 5417 5421